This demonstration page uses our WeatherBlox Daily Observations layout. Learn more.

Left ArrowRight Arrow

Hourly Observations for August 23, 2020

Temp ( °F °C ) Dew Point ( °F °C ) Humidity (%) Winds ( mph kmh ) Pressure ( in mb ) Visibility ( mi km ) Precip ( " mm )
12:54 am 00:54 Clear 75 23.9 67 19.4 76 76 Calm 29.88 1012 9 14.48406 0 0
1:54 am 01:54 Clear 72 22.2 67 19.4 84 84 SE 3 6 29.89 1012 9 14.48406 0 0
2:54 am 02:54 Mostly Cloudy 71 21.7 66 18.9 84 84 S 5 7 29.89 1012 9 14.48406 0 0
3:54 am 03:54 Partly Cloudy 71 21.7 65 18.3 81 81 S 3 6 29.9 1012 10 16.0934 0 0
4:54 am 04:54 Clear 68 20 64 17.8 87 87 S 5 7 29.91 1013 9 14.48406 0 0
5:54 am 05:54 Clear 68 20 64 17.8 87 87 S 5 7 29.91 1013 9 14.48406 0 0
6:54 am 06:54 Sunny 68 20 64 17.8 87 87 S 6 9 29.92 1013 8 12.87472 0 0
7:54 am 07:54 Sunny 70 21.1 65 18.3 84 84 S 6 9 29.94 1014 8 12.87472 0 0
8:54 am 08:54 Sunny 74 23.3 65 18.3 74 74 SSW 5 7 29.94 1014 9 14.48406 0 0
9:54 am 09:54 Sunny 80 26.7 65 18.3 60 60 SW 9 15 29.95 1014 9 14.48406 0 0
10:54 am 10:54 Sunny 84 28.9 65 18.3 53 53 SW 9 15 29.96 1014 9 14.48406 0 0
11:54 am 11:54 Sunny 87 30.6 65 18.3 48 48 undefined N/A 29.95 1014 9 14.48406 0 0
12:54 pm 12:54 Sunny 89 31.7 67 19.4 48 48 SSE 3 6 29.93 1014 9 14.48406 0 0
1:54 pm 13:54 Sunny 92 33.3 67 19.4 44 44 SW 3 6 29.93 1013 9 14.48406 0 0
2:54 pm 14:54 Sunny 94 34.4 67 19.4 41 41 SSW 8 13 29.91 1013 9 14.48406 0 0
3:54 pm 15:54 Sunny 94 34.4 68 20 43 43 SSW 10 17 29.91 1013 9 14.48406 0 0
4:54 pm 16:54 Sunny 94 34.4 69 20.6 44 44 SSW 13 20 29.91 1013 9 14.48406 0 0
5:54 pm 17:54 Sunny 93 33.9 68 20 44 44 SSW 10 17 29.9 1013 9 14.48406 0 0
6:54 pm 18:54 Sunny 91 32.8 68 20 47 47 SSW 9 15 29.91 1013 9 14.48406 0 0
7:54 pm 19:54 Sunny 86 30 70 21.1 59 59 S 6 9 29.91 1013 9 14.48406 0 0
8:54 pm 20:54 Clear 83 28.3 70 21.1 65 65 S 5 7 29.91 1013 10 16.0934 0 0
9:54 pm 21:54 Clear 80 26.7 70 21.1 71 71 SSE 5 7 29.93 1014 10 16.0934 0 0
10:54 pm 22:54 Clear 77 25 69 20.6 77 77 S 6 9 29.95 1014 10 16.0934 0 0
11:54 pm 23:54 Clear 76 24.4 68 20 77 77 S 6 9 29.96 1015 9 14.48406 0 0

Powered by AerisWeather